| time (UTC) | temp F | wind direction | speed knots | gust knots | rain 1hr in | rain 24hr in | rain mn in | humidity % | barometer mb |
| 20260831084538 | 53 | 163 | 4.3 | 6.1 | 0.00 | 0.00 | 0.00 | 67 | 1017.1 |
| 20260831081540 | 54 | 164 | 4.3 | 7.8 | 0.00 | 0.00 | 0.00 | 67 | 1017.1 |
| 20260831080035 | 54 | 164 | 4.3 | 6.1 | 0.00 | 0.00 | 0.00 | 67 | 1017.2 |
| 20260831074539 | 54 | 166 | 4.3 | 6.1 | 0.00 | 0.00 | 0.00 | 67 | 1017.1 |
| 20260831073036 | 55 | 161 | 4.3 | 7.0 | 0.00 | 0.00 | 0.00 | 67 | 1017.2 |
| 20260831071537 | 55 | 162 | 4.3 | 6.1 | 0.00 | 0.00 | 0.00 | 67 | 1017.2 |
| 20260831070037 | 55 | 161 | 3.5 | 6.1 | 0.00 | 0.00 | 0.00 | 67 | 1017.3 |
| 20260831063036 | 55 | 160 | 3.5 | 5.2 | 0.00 | 0.00 | 0.00 | 67 | 1017.4 |
| 20260831061537 | 55 | 165 | 4.3 | 6.1 | 0.00 | 0.00 | 0.00 | 69 | 1017.6 |
| 20260831060038 | 54 | 163 | 3.5 | 5.2 | 0.00 | 0.00 | 0.00 | 72 | 1017.6 |
| 20260831054536 | 53 | 159 | 2.6 | 4.3 | 0.00 | 0.00 | 0.00 | 73 | 1017.6 |
| 20260831053037 | 54 | 176 | 1.7 | 3.5 | 0.00 | 0.00 | 0.00 | 71 | 1017.6 |
| 20260831051530 | 54 | 166 | 0.9 | 2.6 | 0.00 | 0.00 | 0.00 | 71 | 1017.7 |
| 20260831050036 | 55 | 112 | 0.0 | 0.0 | 0.00 | 0.00 | 0.00 | 70 | 1017.7 |
| 20260831044537 | 55 | 112 | 0.0 | 0.0 | 0.00 | 0.00 | 0.00 | 68 | 1017.7 |
| 20260831043036 | 57 | 112 | 0.0 | 0.0 | 0.00 | 0.00 | 0.00 | 66 | 1017.7 |
| 20260831041542 | 58 | 112 | 0.0 | 0.0 | 0.00 | 0.00 | 0.00 | 62 | 1017.7 |
| 20260831040037 | 59 | 112 | 0.0 | 0.0 | 0.00 | 0.00 | 0.00 | 61 | 1017.6 |
| 20260831034537 | 60 | 3 | 0.0 | 2.6 | 0.00 | 0.00 | 0.00 | 57 | 1017.5 |
| 20260831031537 | 64 | 295 | 2.6 | 3.5 | 0.00 | 0.00 | 0.00 | 48 | 1017.4 |
| 20260831030029 | 65 | 300 | 2.6 | 7.0 | 0.00 | 0.00 | 0.00 | 47 | 1017.3 |
| 20260831024537 | 66 | 293 | 3.5 | 7.0 | 0.00 | 0.00 | 0.00 | 45 | 1017.2 |
| 20260831023031 | 68 | 294 | 2.6 | 5.2 | 0.00 | 0.00 | 0.00 | 43 | 1017.1 |
| 20260831021537 | 70 | 301 | 2.6 | 7.0 | 0.00 | 0.00 | 0.00 | 41 | 1017.2 |
| 20260831020036 | 72 | 302 | 3.5 | 9.6 | 0.00 | 0.00 | 0.00 | 39 | 1017.2 |
| 20260831014536 | 73 | 304 | 2.6 | 8.7 | 0.00 | 0.00 | 0.00 | 37 | 1017.3 |
| 20260831011530 | 75 | 310 | 2.6 | 7.8 | 0.00 | 0.00 | 0.00 | 35 | 1017.2 |
| 20260831010036 | 76 | 313 | 2.6 | 9.6 | 0.00 | 0.00 | 0.00 | 34 | 1017.4 |
| 20260831003035 | 76 | 325 | 1.7 | 9.6 | 0.00 | 0.00 | 0.00 | 34 | 1017.4 |
| 20260831001530 | 76 | 314 | 1.7 | 7.0 | 0.00 | 0.00 | 0.00 | 35 | 1017.5 |
| 20260831000037 | 75 | 303 | 2.6 | 7.8 | 0.00 | 0.00 | 0.00 | 36 | 1017.5 |
| 20260830234536 | 75 | 291 | 2.6 | 8.7 | 0.00 | 0.00 | 0.00 | 37 | 1017.7 |
| 20260830233030 | 75 | 321 | 1.7 | 7.0 | 0.00 | 0.00 | 0.00 | 37 | 1017.8 |
| 20260830231532 | 75 | 300 | 3.5 | 8.7 | 0.00 | 0.00 | 0.00 | 37 | 1017.9 |
| 20260830230030 | 74 | 321 | 0.9 | 8.7 | 0.00 | 0.00 | 0.00 | 38 | 1018.1 |
| 20260830224533 | 74 | 305 | 1.7 | 7.0 | 0.00 | 0.00 | 0.00 | 39 | 1018.2 |
| 20260830223107 | 73 | 305 | 2.6 | 7.8 | 0.00 | 0.00 | 0.00 | 39 | 1018.4 |
| 20260830214536 | 72 | 316 | 2.6 | 9.6 | 0.00 | 0.00 | 0.00 | 42 | 1019.1 |
| 20260830213035 | 72 | 325 | 1.7 | 9.6 | 0.00 | 0.00 | 0.00 | 43 | 1019.2 |
| 20260830211535 | 71 | 338 | 1.7 | 7.8 | 0.00 | 0.00 | 0.00 | 44 | 1019.3 |
| 20260830210035 | 70 | 326 | 1.7 | 12.2 | 0.00 | 0.00 | 0.00 | 43 | 1019.3 |
| 20260830204537 | 71 | 338 | 1.7 | 7.0 | 0.00 | 0.00 | 0.00 | 43 | 1019.4 |
| 20260830201531 | 72 | 327 | 1.7 | 7.8 | 0.00 | 0.00 | 0.00 | 43 | 1019.7 |
| 20260830200040 | 72 | 330 | 1.7 | 6.1 | 0.00 | 0.00 | 0.00 | 42 | 1019.9 |
| 20260830194529 | 72 | 313 | 1.7 | 8.7 | 0.00 | 0.00 | 0.00 | 42 | 1020.0 |
| 20260830193033 | 72 | 336 | 1.7 | 6.1 | 0.00 | 0.00 | 0.00 | 44 | 1020.2 |
| 20260830190041 | 67 | 316 | 1.7 | 7.0 | 0.00 | 0.00 | 0.00 | 50 | 1020.6 |
| 20260830184530 | 66 | 337 | 0.9 | 5.2 | 0.00 | 0.00 | 0.00 | 51 | 1020.7 |
| 20260830183032 | 65 | 328 | 1.7 | 7.0 | 0.00 | 0.00 | 0.00 | 52 | 1020.7 |
| 20260830181529 | 64 | 337 | 0.9 | 6.1 | 0.00 | 0.00 | 0.00 | 52 | 1020.9 |
| 20260830180030 | 64 | 21 | 0.0 | 5.2 | 0.00 | 0.00 | 0.00 | 54 | 1020.9 |
| 20260830174535 | 63 | 1 | 0.0 | 3.5 | 0.00 | 0.00 | 0.00 | 56 | 1021.0 |
| 20260830173151 | 62 | 355 | 0.9 | 3.5 | 0.00 | 0.00 | 0.00 | 57 | 1021.1 |
| 20260830171535 | 60 | 350 | 0.9 | 3.5 | 0.00 | 0.00 | 0.00 | 60 | 1021.2 |
| 20260830170037 | 59 | 360 | 0.9 | 4.3 | 0.00 | 0.00 | 0.00 | 60 | 1021.4 |
| 20260830164538 | 58 | 33 | 0.9 | 2.6 | 0.00 | 0.00 | 0.00 | 59 | 1021.6 |
| 20260830161535 | 61 | 35 | 0.0 | 2.6 | 0.00 | 0.00 | 0.00 | 58 | 1021.9 |
| 20260830160037 | 61 | 359 | 0.9 | 3.5 | 0.00 | 0.00 | 0.00 | 63 | 1021.9 |
| 20260830151538 | 52 | 167 | 1.7 | 4.3 | 0.00 | 0.00 | 0.00 | 77 | 1022.0 |
| 20260830143037 | 46 | 174 | 3.5 | 6.1 | 0.00 | 0.00 | 0.00 | 81 | 1021.8 |
| 20260830141535 | 45 | 176 | 4.3 | 7.0 | 0.00 | 0.00 | 0.00 | 81 | 1021.7 |
| 20260830133036 | 44 | 172 | 4.3 | 7.8 | 0.00 | 0.00 | 0.00 | 79 | 1021.4 |
| 20260830130036 | 45 | 170 | 4.3 | 7.8 | 0.00 | 0.00 | 0.00 | 76 | 1021.2 |
| 20260830124530 | 46 | 164 | 3.5 | 7.8 | 0.00 | 0.00 | 0.00 | 76 | 1021.1 |
| 20260830123038 | 46 | 169 | 3.5 | 7.0 | 0.00 | 0.00 | 0.00 | 76 | 1021.1 |
| 20260830121536 | 45 | 165 | 3.5 | 6.1 | 0.00 | 0.00 | 0.00 | 76 | 1021.1 |
| 20260830120036 | 45 | 169 | 4.3 | 8.7 | 0.00 | 0.00 | 0.00 | 75 | 1021.2 |
| 20260830114530 | 45 | 164 | 4.3 | 8.7 | 0.00 | 0.00 | 0.00 | 75 | 1021.1 |
| 20260830113039 | 46 | 179 | 3.5 | 7.0 | 0.00 | 0.00 | 0.00 | 74 | 1021.1 |
| 20260830110038 | 47 | 161 | 3.5 | 7.8 | 0.00 | 0.00 | 0.00 | 74 | 1021.2 |
| 20260830104537 | 46 | 167 | 5.2 | 8.7 | 0.00 | 0.00 | 0.00 | 74 | 1021.1 |
| 20260830103037 | 47 | 174 | 4.3 | 7.0 | 0.00 | 0.00 | 0.00 | 73 | 1021.1 |
| 20260830094529 | 48 | 161 | 4.3 | 7.0 | 0.00 | 0.00 | 0.00 | 71 | 1021.0 |
| 20260830093037 | 48 | 183 | 3.5 | 7.0 | 0.00 | 0.00 | 0.00 | 69 | 1020.9 |
| 20260830090038 | 51 | 200 | 1.7 | 4.3 | 0.00 | 0.00 | 0.00 | 67 | 1021.1 |